TimeEDT,TemperatureF,Dew PointF,Humidity,Sea Level PressureIn,VisibilityMPH,Wind Direction,Wind SpeedMPH,Gust SpeedMPH,PrecipitationIn,Events,Conditions,WindDirDegrees,DateUTC
12:15 AM,46.6,45.5,96,28.85,7.0,SW,15.0,23.0,0.01,Rain,Rain,230,2012-10-30 04:15:00
12:35 AM,46.4,45.1,95,28.86,7.0,SW,16.1,25.3,0.03,Rain,Rain,230,2012-10-30 04:35:00
12:55 AM,46.0,44.8,95,28.87,7.0,WSW,16.1,27.6,0.04,Rain,Rain,240,2012-10-30 04:55:00
1:15 AM,45.9,44.6,95,28.88,10.0,SW,16.1,25.3,0.01,Rain,Light Rain,230,2012-10-30 05:15:00
1:35 AM,45.9,44.2,94,28.89,10.0,SW,15.0,24.2,0.02,Rain,Light Rain,230,2012-10-30 05:35:00
1:55 AM,46.0,44.6,95,28.90,10.0,SW,12.7,18.4,0.03,Rain,Rain,230,2012-10-30 05:55:00
2:15 AM,46.0,44.2,93,28.90,10.0,SW,16.1,23.0,N/A,Rain,Light Rain,230,2012-10-30 06:15:00
2:35 AM,46.2,44.1,92,28.91,10.0,SW,15.0,20.7,0.01,Rain,Light Rain,220,2012-10-30 06:35:00
2:55 AM,46.2,44.1,92,28.92,10.0,SW,13.8,18.4,0.01,Rain,Light Rain,220,2012-10-30 06:55:00
3:55 AM,45.9,44.1,93,28.95,10.0,SSW,17.3,26.5,0.04,Rain,Rain,210,2012-10-30 07:55:00
4:15 AM,45.7,43.9,93,28.96,10.0,SSW,15.0,19.6,N/A,Rain,Rain,210,2012-10-30 08:15:00
4:55 AM,45.5,43.3,92,28.99,10.0,SSW,15.0,21.9,0.03,Rain,Rain,200,2012-10-30 08:55:00
5:15 AM,45.0,43.2,93,29.00,10.0,SSW,12.7,-,0.01,Rain,Rain,210,2012-10-30 09:15:00
5:35 AM,44.8,43.0,93,29.02,10.0,SSW,13.8,21.9,0.03,Rain,Rain,210,2012-10-30 09:35:00
5:55 AM,44.6,42.4,92,29.04,7.0,SW,13.8,21.9,0.05,Rain,Rain,220,2012-10-30 09:55:00
6:15 AM,43.9,42.1,93,29.05,10.0,SSW,17.3,24.2,0.01,Rain,Rain,210,2012-10-30 10:15:00
6:35 AM,43.7,41.9,93,29.07,10.0,SSW,12.7,19.6,0.02,Rain,Light Rain,210,2012-10-30 10:35:00
6:55 AM,43.3,41.9,95,29.08,10.0,SSW,13.8,21.9,0.03,Rain,Light Rain,210,2012-10-30 10:55:00
7:15 AM,42.8,41.4,95,29.09,10.0,SSW,13.8,17.3,0.01,Rain,Rain,200,2012-10-30 11:15:00
7:35 AM,41.9,40.6,95,29.11,10.0,SSW,13.8,20.7,0.01,Rain,Light Rain,200,2012-10-30 11:35:00
7:55 AM,41.5,40.5,96,29.13,10.0,SSW,11.5,19.6,0.02,Rain,Light Rain,200,2012-10-30 11:55:00
8:15 AM,41.4,40.3,96,29.15,10.0,SSW,12.7,19.6,N/A,Rain,Light Rain,200,2012-10-30 12:15:00
8:35 AM,41.4,40.3,96,29.16,10.0,SSW,13.8,18.4,N/A,Rain,Light Rain,200,2012-10-30 12:35:00
8:55 AM,41.7,40.6,96,29.18,10.0,SSW,12.7,21.9,N/A,Rain,Light Rain,200,2012-10-30 12:55:00
9:15 AM,41.5,40.5,96,29.19,10.0,SSW,11.5,19.6,0.01,Rain,Light Rain,200,2012-10-30 13:15:00
9:35 AM,41.5,40.5,96,29.21,10.0,SSW,11.5,17.3,0.01,Rain,Light Rain,210,2012-10-30 13:35:00
9:55 AM,41.7,40.6,96,29.22,10.0,SSW,12.7,16.1,0.02,Rain,Light Rain,200,2012-10-30 13:55:00
10:15 AM,41.4,40.3,96,29.23,10.0,SSW,11.5,-,0.01,Rain,Light Rain,210,2012-10-30 14:15:00
10:35 AM,41.2,40.1,96,29.24,10.0,SSW,11.5,18.4,0.02,Rain,Light Rain,210,2012-10-30 14:35:00
10:55 AM,41.4,40.3,96,29.25,10.0,SSW,11.5,17.3,0.02,Rain,Light Rain,200,2012-10-30 14:55:00
11:15 AM,41.5,40.6,97,29.26,10.0,SSW,10.4,-,N/A,Rain,Light Rain,200,2012-10-30 15:15:00
11:35 AM,42.1,41.2,97,29.27,10.0,SSW,9.2,-,0.01,,Light Drizzle,210,2012-10-30 15:35:00
11:55 AM,42.8,41.4,95,29.28,10.0,SSW,12.7,18.4,0.01,Rain,Light Rain,210,2012-10-30 15:55:00
12:15 PM,43.0,41.4,94,29.29,10.0,SSW,12.7,17.3,N/A,,Light Drizzle,210,2012-10-30 16:15:00
12:35 PM,43.5,42.1,95,29.29,10.0,South,9.2,16.1,N/A,Rain,Light Rain,190,2012-10-30 16:35:00
12:55 PM,43.2,41.7,95,29.30,10.0,SSW,6.9,-,N/A,,Drizzle,210,2012-10-30 16:55:00
1:15 PM,43.2,41.9,95,29.30,7.0,SSW,12.7,16.1,N/A,Rain,Rain,210,2012-10-30 17:15:00
1:35 PM,43.7,42.3,95,29.31,10.0,SSW,11.5,-,N/A,,Drizzle,210,2012-10-30 17:35:00
1:55 PM,43.7,42.3,95,29.31,10.0,SSW,10.4,-,N/A,Rain,Rain,210,2012-10-30 17:55:00
2:15 PM,43.9,42.1,93,29.32,10.0,SSW,12.7,17.3,N/A,,Light Drizzle,210,2012-10-30 18:15:00
2:35 PM,44.1,42.3,93,29.32,10.0,SSW,12.7,17.3,N/A,,Drizzle,210,2012-10-30 18:35:00
2:55 PM,44.1,42.4,94,29.33,10.0,SSW,9.2,-,N/A,Rain,Light Rain,210,2012-10-30 18:55:00
3:15 PM,44.2,42.8,95,29.34,10.0,SW,10.4,-,N/A,Rain,Light Rain,220,2012-10-30 19:15:00
3:35 PM,44.8,42.8,93,29.34,10.0,SW,6.9,-,N/A,,Light Drizzle,220,2012-10-30 19:35:00
3:55 PM,44.8,43.0,93,29.35,10.0,SW,8.1,-,N/A,,Overcast,220,2012-10-30 19:55:00
4:15 PM,45.0,43.0,93,29.36,10.0,SW,6.9,-,N/A,,Overcast,220,2012-10-30 20:15:00
4:35 PM,45.0,42.6,91,29.37,10.0,SW,5.8,-,N/A,,Overcast,220,2012-10-30 20:35:00
4:55 PM,45.1,43.0,92,29.38,10.0,SSW,4.6,-,N/A,,Light Drizzle,200,2012-10-30 20:55:00
5:15 PM,45.5,43.7,93,29.39,10.0,South,3.5,-,N/A,,Overcast,180,2012-10-30 21:15:00
5:35 PM,45.5,43.7,93,29.39,10.0,South,3.5,-,0.01,,Overcast,190,2012-10-30 21:35:00
5:55 PM,45.1,43.7,95,29.40,10.0,SSW,3.5,-,0.01,,Overcast,210,2012-10-30 21:55:00
6:15 PM,45.0,43.3,94,29.41,10.0,SW,5.8,-,N/A,,Overcast,230,2012-10-30 22:15:00
6:35 PM,45.3,41.2,85,29.42,10.0,SW,5.8,-,N/A,,Overcast,230,2012-10-30 22:35:00
6:55 PM,44.8,41.4,88,29.43,10.0,SW,4.6,-,N/A,,Overcast,220,2012-10-30 22:55:00
7:15 PM,44.8,41.4,88,29.44,10.0,SW,3.5,-,N/A,,Overcast,230,2012-10-30 23:15:00
7:35 PM,44.6,41.4,88,29.44,10.0,SW,4.6,-,N/A,,Mostly Cloudy,220,2012-10-30 23:35:00
7:55 PM,44.4,41.2,88,29.44,10.0,SW,3.5,-,N/A,,Scattered Clouds,230,2012-10-30 23:55:00
8:15 PM,44.2,41.0,88,29.45,10.0,Calm,Calm,-,N/A,,Clear,0,2012-10-31 00:15:00
8:35 PM,44.1,41.4,90,29.46,10.0,Calm,Calm,-,N/A,,Clear,0,2012-10-31 00:35:00
8:55 PM,44.1,41.0,89,29.46,10.0,SW,3.5,-,N/A,,Clear,220,2012-10-31 00:55:00
9:15 PM,43.9,41.4,91,29.47,10.0,Calm,Calm,-,N/A,,Scattered Clouds,0,2012-10-31 01:15:00
9:35 PM,43.7,41.2,91,29.47,10.0,SSW,3.5,-,N/A,,Mostly Cloudy,210,2012-10-31 01:35:00
9:55 PM,44.1,40.6,88,29.48,10.0,SW,4.6,-,N/A,,Overcast,220,2012-10-31 01:55:00
10:15 PM,43.9,40.3,87,29.48,10.0,SW,6.9,-,N/A,,Scattered Clouds,220,2012-10-31 02:15:00
10:35 PM,44.1,39.9,85,29.48,10.0,WSW,9.2,-,N/A,,Scattered Clouds,240,2012-10-31 02:35:00
10:55 PM,44.1,39.2,83,29.48,10.0,WSW,9.2,16.1,N/A,,Scattered Clouds,240,2012-10-31 02:55:00
11:15 PM,43.9,39.0,83,29.48,10.0,WSW,6.9,-,N/A,,Scattered Clouds,240,2012-10-31 03:15:00
11:35 PM,43.7,39.2,84,29.48,10.0,SW,4.6,-,N/A,,Scattered Clouds,230,2012-10-31 03:35:00
11:55 PM,43.3,39.4,86,29.48,10.0,SW,3.5,-,N/A,,Overcast,230,2012-10-31 03:55:00